Flag for China Weather past 2 weeks in Guangzhou, Guangdong, China

Now
54 °F

Mostly cloudy.


Feels Like: 54 °F
Forecast: 54 / 70 °F
Wind: 1 mph from North

Location: Canton Airport

Current Time: Mar 6, 2015 at 10:58:05 PM

Latest Report: Mar 6, 2015 at 10:30 PM


Visibility: 5 mi

Pressure: 30.09 "Hg

Humidity: 88%

Dew point: 50 °F

Location of GuangzhouLocation

Historic Weather in Guangzhou — Graph

°F

Guangzhou temperature yesterday

Maximum temperature yesterday: 57 °F (at 12:00 PM)
Minimum temperature yesterday: 55 °F (at 12:00 AM)
Average temperature yesterday: 56 °F

Past Weeks' High & Low Weather Summary

 TemperatureHumidityPressure
High82 °F (Feb 26, 3:00 PM)100% (Feb 21, 11:30 PM)30.24 "Hg (Feb 21, 11:30 PM)
Low52 °F (Mar 6, 10:30 AM)52% (Mar 1, 1:30 PM)29.83 "Hg (Feb 24, 3:30 PM)
Average66 °F83%29.99 "Hg
* Reported Feb 19 9:30 PM — Mar 6 9:30 PM, Guangzhou, Weather by CustomWeather, © 2015

Note: Actual official high and low records may vary slightly from our data, if they occured in-between our weather recording intervals... More about our weather records

Advertising

Guangzhou weather history for previous 24 hours

 ConditionsComfort  
Time TempWeatherWind HumidityBarometerVisibility
9:30 PM
Fri, Mar 6
52 °FMostly cloudy.No wind100%30.09 "Hg4 mi
9:00 PM52 °FMostly cloudy.3 mph100%30.09 "Hg5 mi
8:30 PM52 °FFog.1 mph100%30.07 "Hg3 mi
8:00 PM52 °FFog.1 mph100%30.07 "Hg3 mi
7:30 PM52 °FLight rain. Fog.3 mph100%30.04 "Hg2 mi
7:00 PM52 °FLight rain. Fog.3 mph100%30.04 "Hg2 mi
6:30 PM52 °FLight rain. Fog.3 mph100%30.04 "Hg2 mi
6:00 PM54 °FLight rain. Fog.3 mph94%30.04 "Hg2 mi
5:30 PM54 °FLight rain. More clouds than sun.3 mph94%30.04 "Hg4 mi
5:00 PM54 °FMore clouds than sun.3 mph94%30.04 "Hg4 mi
4:30 PM54 °FMore clouds than sun.3 mph88%30.04 "HgN/A
4:00 PM54 °FMore clouds than sun.6 mph94%30.04 "HgN/A
3:30 PM54 °FMore clouds than sun.3 mph88%30.04 "HgN/A
3:00 PM54 °FMore clouds than sun.6 mph94%30.04 "Hg5 mi
2:30 PM54 °FMore clouds than sun.8 mph88%30.07 "Hg4 mi
2:00 PM54 °FMore clouds than sun.8 mph88%30.07 "Hg4 mi
1:30 PM54 °FMore clouds than sun.8 mph94%30.07 "Hg4 mi
1:00 PM54 °FMore clouds than sun.6 mph94%30.09 "Hg4 mi
12:30 PM54 °FMore clouds than sun.6 mph94%30.09 "Hg4 mi
12:00 PM54 °FLight rain. Fog.3 mph94%30.12 "Hg3 mi
11:30 AM54 °FLight rain. Fog.6 mph94%30.12 "Hg2 mi
11:00 AM54 °FLight rain. Fog.3 mph94%30.12 "Hg2 mi
10:30 AM52 °FLight rain. Fog.6 mph100%30.12 "Hg2 mi
10:00 AM54 °FLight rain. Fog.6 mph94%30.12 "Hg2 mi
9:30 AM54 °FLight rain. Fog.6 mph94%30.12 "Hg3 mi
9:00 AM54 °FLight rain. More clouds than sun.3 mph94%30.09 "Hg3 mi
8:30 AM54 °FMore clouds than sun.1 mph94%30.09 "HgN/A
8:00 AM54 °FMore clouds than sun.3 mph94%30.07 "Hg5 mi
7:30 AM54 °FMore clouds than sun.6 mph94%30.07 "Hg5 mi
7:00 AM54 °FMore clouds than sun.3 mph94%30.07 "Hg5 mi
6:30 AM54 °FMostly cloudy.3 mph94%30.04 "Hg5 mi
6:00 AM54 °FMostly cloudy.6 mph94%30.04 "HgN/A
5:30 AM54 °FLight rain. Mostly cloudy.3 mph94%30.01 "Hg5 mi
4:30 AM54 °FLight rain. Mostly cloudy.6 mph94%30.01 "Hg5 mi
4:00 AM55 °FLight rain. Mostly cloudy.6 mph88%30.01 "Hg5 mi
3:30 AM55 °FMostly cloudy.6 mph94%30.01 "Hg5 mi
3:00 AM55 °FLight rain. Mostly cloudy.1 mph94%30.04 "Hg4 mi
2:30 AM55 °FLight rain. Fog.3 mph94%30.04 "Hg3 mi
2:00 AM55 °FLight rain. Fog.3 mph94%30.04 "Hg3 mi
1:30 AM55 °FLight rain. Fog.3 mph94%30.04 "Hg3 mi
1:00 AM55 °FLight rain. Fog.3 mph100%30.04 "Hg3 mi
12:30 AM55 °FLight rain. Fog.3 mph100%30.04 "Hg3 mi
12:00 AM55 °FLight rain. Fog.3 mph100%30.04 "Hg3 mi
11:30 PM
Thu, Mar 5
55 °FLight rain. Fog.3 mph100%30.04 "Hg3 mi
11:00 PM55 °FLight rain. Fog.3 mph100%30.04 "Hg2 mi
10:30 PM55 °FLight rain. Fog.3 mph100%30.04 "Hg3 mi
10:00 PM55 °FLight rain. Fog.1 mph100%30.04 "Hg3 mi
Weather by CustomWeather, © 2015

See weather overviewHow to use our weather pages